Regional Weather Roundup
Issued by NWS

Home | Current Version | Previous Version | Graphics & Text | Print | Product List | Glossary On
Versions: 1 2 3 4 5 6 7 8 9 10 11 12 13 14 15 16 17 18 19 20 21 22 23 24 25 26 27 28 29 30 31 32 33 34 35 36 37 38 39 40 41 42 43 44 45 46 47 48 49 50
183
ASUS43 KIND 070709
RWRIN

WEATHER ROUNDUP FOR INDIANA
NATIONAL WEATHER SERVICE INDIANAPOLIS IN
200 AM EST SUN FEB 07 2016

NOTE: "FAIR" INDICATES FEW OR NO CLOUDS BELOW 12,000 FEET WITH NO
SIGNIFICANT WEATHER AND/OR OBSTRUCTIONS TO VISIBILITY.

* - STATION DOES NOT REPORT WEATHER SUCH AS PRECIPITATION OR FOG.

+ - STATION NOT QUALITY CONTROLLED BY THE NATIONAL WEATHER SERVICE.
    USE DATA WITH CAUTION...ESPECIALLY DEWPOINT AND RELATIVE
    HUMIDITY OBSERVATIONS.

INZ001>003-010>013-019-020-070800-
NORTHWEST INDIANA

CITY           SKY/WX    TMP DP  RH WIND       PRES   REMARKS
GARY /AIRPORT/ CLOUDY    36  29  76 S3        30.06S
LA PORTE +     PTCLDY    33  31  91 SW5       30.06F WCI  29
MICHIGAN CITY+ CLOUDY    34  30  86 S6        30.06F WCI  29
MONTICELLO +   CLEAR     34  23  65 S7        30.08F WCI  28
RENSSELAER +   CLEAR     32  28  86 S7        30.08F WCI  26
VALPARAISO     CLEAR     32  27  81 S7        30.06F WCI  26

$$

LMZ046-743>745-070800-
SOUTHERN LAKE MICHIGAN

STATION/POSITION TIME  TEMP    WIND        PRES    WAVE
                       AIR SEA DIR/SP/G            HT
                 (UTC) (F)     (DEG/KT/KT) (MB)    (FT)
BURNS HARBOR     0600   35     190/ 10/ 13 1018.6F
MICHIGAN CITY    0600   37     160/ 16/ 18   N/A

$$

INZ004-005-014>016-021>024-070800-
NORTH CENTRAL INDIANA

CITY           SKY/WX    TMP DP  RH WIND       PRES   REMARKS
GOSHEN         CLEAR     34  26  72 S10       30.06F WCI  26
LOGANSPORT +   CLEAR     32  25  74 S8        30.10F WCI  25
PERU/GRISSOM   CLEAR     31  26  83 S9        30.08F WCI  23
ROCHESTER +    CLEAR     37  25  60 SW7       30.08F
SOUTH BEND     PTCLDY    34  27  75 SW8       30.06F WCI  27
WARSAW +       CLEAR     32  27  80 CALM      30.08F

$$

INZ006>009-017-018-025>027-070800-
NORTHEAST INDIANA

CITY           SKY/WX    TMP DP  RH WIND       PRES   REMARKS
AUBURN +       PTCLDY    30  25  80 S3        30.09F
FORT WAYNE     PTCLDY    31  25  78 SW10      30.10F WCI  22
HUNTINGTON +   CLEAR     32  23  68 SW5       30.10F WCI  28

$$

INZ028-029-035-036-043>045-051>053-070800-
WEST CENTRAL INDIANA

CITY           SKY/WX    TMP DP  RH WIND       PRES   REMARKS
GREENCASTLE +  CLEAR     37  18  44 SW7       30.13F
LAFAYETTE      CLEAR     32  25  75 CALM      30.10F
TERRE HAUTE    CLEAR     39  23  52 SW10      30.14F

$$

INZ030>032-037>040-046>048-054>057-064-065-070800-
CENTRAL INDIANA

CITY           SKY/WX    TMP DP  RH WIND       PRES   REMARKS
FRANKFORT +    CLEAR     34  21  59 S8        30.11F WCI  27
GREENWOOD *+   CLEAR     36  28  75 S7        30.15F
INDIANAPOLIS   CLEAR     33  24  69 S9        30.12F WCI  25
-EAGLE CREEK   CLEAR     33  24  69 S3        30.13F
KOKOMO *+        N/A     34  25  69 S10       30.10F WCI  26
MARION +       CLEAR     32  20  62 S10       30.12F WCI  24
MT COMFORT *+  CLEAR     34  25  69 S8        30.14F WCI  27
SHELBYVILLE    CLEAR     36  25  64 S10       30.15F
ZIONSVILLE +   CLEAR     35  26  68 S10       30.12F WCI  27

$$

INZ033-034-041-042-049-050-058-059-070800-
EAST CENTRAL INDIANA

CITY           SKY/WX    TMP DP  RH WIND       PRES   REMARKS
MUNCIE         CLEAR     36  25  64 S8        30.12F

$$

INZ060-061-067>069-081>083-085>088-070800-
SOUTHWEST INDIANA

CITY           SKY/WX    TMP DP  RH WIND       PRES   REMARKS
EVANSVILLE     CLEAR     37  23  56 SW6       30.22F
HUNTINGBURG *+ CLEAR     37  21  52 SW7       30.21F
WASHINGTON +   CLEAR     38  24  55 SW10      30.18F

$$

INZ062-063-066-070>080-084-089>092-070800-
SOUTH CENTRAL AND SOUTHEAST INDIANA

CITY           SKY/WX    TMP DP  RH WIND       PRES   REMARKS
BEDFORD +      CLEAR     36  27  69 S5        30.18
BLOOMINGTON    CLEAR     38  24  57 SW7       30.16F
MADISON *+     CLEAR     32  27  80 S3        30.21F
NORTH VERNON + CLEAR     36  25  64 CALM      30.18F
SEYMOUR +      CLEAR     30  25  80 CALM      30.19F

$$





USA.gov is the U.S. government's official web portal to all federal, state and local government web resources and services.